Starlink 31553

operational
NORAD ID: 59363 Int'l Des: 2024-060 Owner: SPXS Country: US Constellation: starlink
LEOCIRCULAR

About Starlink 31553

Description loading...

Live Position

Loading 3D Globe...

Upcoming Passes

Altitude History

Altitude vs Time

uPlot chart will show altitude changes over time

Two-Line Element Set

1 59363U 24060R 25303.97199913 .00000387 00000-0 23593-4 0 9993
2 59363 43.0020 265.5451 0001472 270.4380 89.6303 15.27578924 90304
Epoch: Oct 30, 2025 • Age: 42 hours

Current Status

Altitude 488.6 km
Velocity 7.62 km/s
Sub-Earth Point -25.48°S, 79.12°W
Launch Date Mar 31, 2024
Age 1.5 years
Type internet

Technical Details

Classification Payload
Mass 730.00 kg
Dry Mass 700.00 kg
Total Mass 730.00 kg
Length 0.30 m
Diameter 4.10 m
Span 29.00 m
Shape Box + pan
Manufacturer SPXS
Bus Type Starlink V2M
Phase Status In Orbit
Owner/State SPXS/US

Large Constellations

Loading constellations...